When you browse on this site, cookies collect data to enhance your experience and personalize the content and advertising you see.
Visit our Privacy Policy to learn more. By continuing to use the site, you agree to this use of cookies and data.
  • In Hungary
  • List of Countries
  • For 7 days
  • Water Temperature
  • Satellite Maps
  • Weather Map
  • News
  • Weather Widgets
  • user-avatar
    Login

    Hourly Weather Kamen-Kashirskiy

    Today, 20 April, Saturday

    Time Temperature Precipitation Wind Pressure Humidity
    00:00 +9°C° 0 mm 1 mps 758 mmHg 55%
    01:00 +9°C° 0 mm 1 mps 758 mmHg 56%
    02:00 +8°C° 0 mm 1 mps 758 mmHg 56%
    03:00 +8°C° 0 mm 1 mps 757 mmHg 58%
    04:00 +7°C° 0 mm 1 mps 757 mmHg 60%
    05:00 +7°C° 0 mm 1 mps 757 mmHg 62%
    06:00 +9°C° 0 mm 1 mps 757 mmHg 59%
    07:00 +9°C° 0 mm 2 mps 757 mmHg 56%
    08:00 +12°C° 0 mm 2 mps 757 mmHg 54%
    09:00 +14°C° 0 mm 2 mps 757 mmHg 49%
    10:00 +15°C° 0 mm 2 mps 756 mmHg 45%
    11:00 +17°C° 0 mm 2 mps 756 mmHg 40%
    12:00 +17°C° 0 mm 2 mps 756 mmHg 40%
    13:00 +17°C° 0 mm 2 mps 755 mmHg 41%
    14:00 +17°C° 0 mm 3 mps 755 mmHg 41%
    15:00 +17°C° 0 mm 3 mps 755 mmHg 41%
    16:00 +17°C° 0 mm 3 mps 754 mmHg 41%
    17:00 +17°C° 0 mm 3 mps 754 mmHg 41%
    18:00 +15°C° 0 mm 2 mps 754 mmHg 45%
    19:00 +14°C° 0 mm 2 mps 754 mmHg 48%
    20:00 +12°C° 0 mm 1 mps 753 mmHg 52%
    21:00 +11°C° 0 mm 1 mps 753 mmHg 53%
    22:00 +11°C° 0 mm 1 mps 753 mmHg 55%
    23:00 +10°C° 0 mm 1 mps 753 mmHg 57%

    Tomorrow, 21 April, Sunday

    Time Temperature Precipitation Wind Pressure Humidity
    00:00 +10°C° 0 mm 1 mps 753 mmHg 60%
    01:00 +9°C° 0 mm 1 mps 752 mmHg 63%
    02:00 +8°C° 0 mm 2 mps 752 mmHg 66%
    03:00 +8°C° 0.1 mm 2 mps 752 mmHg 70%
    04:00 +8°C° 0.1 mm 2 mps 752 mmHg 75%
    05:00 +8°C° 0.1 mm 2 mps 752 mmHg 79%
    06:00 +9°C° 0.1 mm 1 mps 752 mmHg 78%
    07:00 +10°C° 0.1 mm 1 mps 752 mmHg 77%
    08:00 +11°C° 0.1 mm 1 mps 752 mmHg 76%
    09:00 +12°C° 0.9 mm 2 mps 751 mmHg 70%
    10:00 +13°C° 0.9 mm 2 mps 751 mmHg 64%
    11:00 +14°C° 0.9 mm 3 mps 751 mmHg 59%
    12:00 +15°C° 0.9 mm 2 mps 751 mmHg 57%
    13:00 +15°C° 0.9 mm 2 mps 750 mmHg 56%
    14:00 +15°C° 0.9 mm 2 mps 750 mmHg 55%
    15:00 +15°C° 0.4 mm 2 mps 750 mmHg 56%
    16:00 +15°C° 0.4 mm 2 mps 750 mmHg 58%
    17:00 +14°C° 0.4 mm 2 mps 750 mmHg 59%
    18:00 +13°C° 0.8 mm 1 mps 750 mmHg 66%
    19:00 +12°C° 0.8 mm 1 mps 750 mmHg 72%
    20:00 +10°C° 0.8 mm 1 mps 750 mmHg 79%
    21:00 +10°C° 0 mm 1 mps 750 mmHg 82%
    22:00 +8°C° 0 mm 2 mps 750 mmHg 85%
    23:00 +8°C° 0 mm 2 mps 750 mmHg 88%

    Day after tomorrow, 22 April, Monday

    Time Temperature Precipitation Wind Pressure Humidity
    00:00 +8°C° 0.1 mm 3 mps 751 mmHg 87%
    01:00 +7°C° 0.1 mm 4 mps 751 mmHg 87%
    02:00 +7°C° 0.1 mm 4 mps 752 mmHg 86%
    03:00 +6°C° 0 mm 4 mps 752 mmHg 84%
    04:00 +6°C° 0 mm 4 mps 752 mmHg 82%
    05:00 +5°C° 0 mm 4 mps 753 mmHg 81%
    06:00 +6°C° 0 mm 4 mps 753 mmHg 75%
    07:00 +8°C° 0 mm 5 mps 754 mmHg 69%
    08:00 +9°C° 0 mm 6 mps 754 mmHg 63%
    09:00 +10°C° 0 mm 6 mps 754 mmHg 57%
    10:00 +11°C° 0 mm 6 mps 755 mmHg 50%
    11:00 +14°C° 0 mm 7 mps 755 mmHg 44%
    12:00 +14°C° 0 mm 7 mps 755 mmHg 42%
    13:00 +15°C° 0 mm 6 mps 755 mmHg 40%
    14:00 +15°C° 0 mm 6 mps 755 mmHg 38%
    15:00 +15°C° 0 mm 6 mps 755 mmHg 41%
    16:00 +14°C° 0 mm 5 mps 755 mmHg 43%
    17:00 +14°C° 0 mm 5 mps 755 mmHg 46%
    18:00 +13°C° 0 mm 5 mps 755 mmHg 49%
    19:00 +11°C° 0 mm 4 mps 755 mmHg 52%
    20:00 +10°C° 0 mm 4 mps 755 mmHg 55%
    21:00 +10°C° 0 mm 4 mps 755 mmHg 57%
    22:00 +8°C° 0 mm 4 mps 755 mmHg 59%
    23:00 +8°C° 0 mm 4 mps 755 mmHg 61%

    23 April, Tuesday

    Time Temperature Precipitation Wind Pressure Humidity
    00:00 +7°C° 0 mm 4 mps 755 mmHg 62%
    01:00 +7°C° 0 mm 5 mps 755 mmHg 63%
    02:00 +7°C° 0 mm 5 mps 755 mmHg 65%
    03:00 +6°C° 0 mm 5 mps 755 mmHg 65%
    04:00 +6°C° 0 mm 5 mps 755 mmHg 65%
    05:00 +6°C° 0 mm 5 mps 755 mmHg 66%
    06:00 +7°C° 0 mm 6 mps 755 mmHg 61%
    07:00 +9°C° 0 mm 7 mps 755 mmHg 57%
    08:00 +10°C° 0 mm 7 mps 756 mmHg 52%
    09:00 +11°C° 0 mm 8 mps 755 mmHg 49%
    10:00 +12°C° 0 mm 8 mps 755 mmHg 45%
    11:00 +15°C° 0 mm 9 mps 755 mmHg 42%
    12:00 +15°C° 0 mm 9 mps 755 mmHg 41%
    13:00 +16°C° 0 mm 9 mps 755 mmHg 40%
    14:00 +16°C° 0 mm 9 mps 754 mmHg 39%
    15:00 +16°C° 0 mm 8 mps 754 mmHg 42%
    16:00 +16°C° 0 mm 8 mps 754 mmHg 44%
    17:00 +15°C° 0 mm 8 mps 753 mmHg 46%
    18:00 +14°C° 0 mm 7 mps 753 mmHg 49%
    19:00 +13°C° 0 mm 6 mps 753 mmHg 52%
    20:00 +11°C° 0 mm 6 mps 753 mmHg 55%
    21:00 +10°C° 0 mm 6 mps 753 mmHg 55%
    22:00 +10°C° 0 mm 6 mps 754 mmHg 56%
    23:00 +10°C° 0 mm 7 mps 754 mmHg 56%

    24 April, Wednesday

    Time Temperature Precipitation Wind Pressure Humidity
    00:00 +10°C° 0 mm 6 mps 754 mmHg 56%
    01:00 +9°C° 0 mm 6 mps 754 mmHg 57%
    02:00 +9°C° 0 mm 6 mps 753 mmHg 57%
    03:00 +8°C° 0 mm 6 mps 753 mmHg 56%
    04:00 +8°C° 0 mm 7 mps 753 mmHg 55%
    05:00 +8°C° 0 mm 7 mps 753 mmHg 54%
    06:00 +9°C° 0 mm 7 mps 754 mmHg 54%
    07:00 +9°C° 0 mm 8 mps 754 mmHg 55%
    08:00 +10°C° 0 mm 9 mps 754 mmHg 55%
    09:00 +11°C° 0 mm 9 mps 754 mmHg 52%
    10:00 +13°C° 0 mm 9 mps 754 mmHg 50%
    11:00 +15°C° 0 mm 9 mps 754 mmHg 47%
    12:00 +16°C° 0 mm 9 mps 754 mmHg 46%
    13:00 +17°C° 0 mm 9 mps 754 mmHg 45%
    14:00 +17°C° 0 mm 9 mps 754 mmHg 44%
    15:00 +17°C° 0 mm 8 mps 754 mmHg 47%
    16:00 +17°C° 0 mm 7 mps 754 mmHg 49%
    17:00 +16°C° 0 mm 7 mps 754 mmHg 51%
    18:00 +15°C° 0 mm 6 mps 754 mmHg 54%
    19:00 +14°C° 0 mm 6 mps 754 mmHg 56%
    20:00 +13°C° 0 mm 5 mps 754 mmHg 59%
    21:00 +13°C° 0 mm 5 mps 754 mmHg 61%
    22:00 +12°C° 0 mm 5 mps 754 mmHg 62%
    23:00 +12°C° 0 mm 5 mps 754 mmHg 64%

    25 April, Thursday

    Time Temperature Precipitation Wind Pressure Humidity
    00:00 +12°C° 0 mm 5 mps 754 mmHg 65%
    01:00 +10°C° 0 mm 5 mps 754 mmHg 66%
    02:00 +10°C° 0 mm 5 mps 754 mmHg 67%
    03:00 +10°C° 0 mm 5 mps 755 mmHg 67%
    04:00 +10°C° 0 mm 5 mps 755 mmHg 66%
    05:00 +10°C° 0 mm 5 mps 755 mmHg 66%
    06:00 +12°C° 0 mm 5 mps 755 mmHg 65%
    07:00 +11°C° 0 mm 6 mps 755 mmHg 65%
    08:00 +13°C° 0 mm 6 mps 755 mmHg 64%
    09:00 +14°C° 0 mm 6 mps 755 mmHg 59%
    10:00 +16°C° 0 mm 6 mps 755 mmHg 54%
    11:00 +17°C° 0 mm 6 mps 755 mmHg 49%
    12:00 +19°C° 0 mm 6 mps 755 mmHg 47%
    13:00 +20°C° 0 mm 6 mps 754 mmHg 45%
    14:00 +21°C° 0 mm 6 mps 754 mmHg 43%
    15:00 +21°C° 0 mm 6 mps 754 mmHg 44%
    16:00 +21°C° 0 mm 6 mps 753 mmHg 44%
    17:00 +20°C° 0 mm 6 mps 753 mmHg 45%
    18:00 +19°C° 0 mm 5 mps 753 mmHg 50%
    19:00 +16°C° 0 mm 5 mps 753 mmHg 55%
    20:00 +15°C° 0 mm 4 mps 753 mmHg 59%
    21:00 +14°C° 0 mm 4 mps 752 mmHg 62%
    22:00 +14°C° 0 mm 4 mps 752 mmHg 65%
    23:00 +13°C° 0 mm 5 mps 752 mmHg 67%
    Show more